Tiempo cada hora Aarwangen

Hoy, 28 Octubre, Miércoles

Tiempo Temperatura Precipitaciones Viento Presión Humedad
00:00 +7°C° 0 mm 2 mps 717 mmHg 78%
01:00 +8°C° 0 mm 2 mps 717 mmHg 74%
02:00 +8°C° 0.1 mm 2 mps 717 mmHg 77%
03:00 +8°C° 0.1 mm 2 mps 717 mmHg 81%
04:00 +9°C° 0.1 mm 1 mps 717 mmHg 84%
05:00 +9°C° 0.3 mm 1 mps 717 mmHg 86%
06:00 +9°C° 0.3 mm 1 mps 717 mmHg 88%
07:00 +9°C° 0.3 mm 1 mps 717 mmHg 90%
08:00 +8°C° 0.1 mm 2 mps 718 mmHg 90%
09:00 +9°C° 0.1 mm 2 mps 718 mmHg 90%
10:00 +10°C° 0.1 mm 2 mps 719 mmHg 90%
11:00 +11°C° 0.1 mm 3 mps 719 mmHg 85%
12:00 +12°C° 0.1 mm 3 mps 719 mmHg 81%
13:00 +14°C° 0.1 mm 4 mps 718 mmHg 76%
14:00 +13°C° 0.1 mm 4 mps 719 mmHg 76%
15:00 +13°C° 0.1 mm 3 mps 719 mmHg 76%
16:00 +13°C° 0.1 mm 3 mps 719 mmHg 76%
17:00 +13°C° 0 mm 2 mps 719 mmHg 80%
18:00 +12°C° 0 mm 2 mps 720 mmHg 84%
19:00 +11°C° 0 mm 1 mps 720 mmHg 88%
20:00 +10°C° 0.1 mm 2 mps 720 mmHg 88%
21:00 +10°C° 0.1 mm 2 mps 720 mmHg 89%
22:00 +10°C° 0.1 mm 2 mps 721 mmHg 89%
23:00 +9°C° 0 mm 2 mps 721 mmHg 89%

Mañana, 29 Octubre, Jueves

Tiempo Temperatura Precipitaciones Viento Presión Humedad
00:00 +9°C° 0 mm 2 mps 721 mmHg 89%
01:00 +9°C° 0 mm 2 mps 721 mmHg 89%
02:00 +9°C° 0.1 mm 2 mps 721 mmHg 89%
03:00 +9°C° 0.1 mm 3 mps 721 mmHg 90%
04:00 +9°C° 0.1 mm 3 mps 721 mmHg 90%
05:00 +9°C° 0.5 mm 3 mps 721 mmHg 91%
06:00 +9°C° 0.5 mm 3 mps 722 mmHg 92%
07:00 +9°C° 0.5 mm 3 mps 722 mmHg 93%
08:00 +9°C° 0.4 mm 3 mps 723 mmHg 93%
09:00 +9°C° 0.4 mm 3 mps 723 mmHg 92%
10:00 +10°C° 0.4 mm 3 mps 724 mmHg 92%
11:00 +10°C° 0.2 mm 3 mps 724 mmHg 90%
12:00 +11°C° 0.2 mm 3 mps 724 mmHg 88%
13:00 +11°C° 0.2 mm 3 mps 724 mmHg 86%
14:00 +11°C° 0.1 mm 3 mps 724 mmHg 86%
15:00 +12°C° 0.1 mm 2 mps 724 mmHg 86%
16:00 +13°C° 0.1 mm 2 mps 724 mmHg 86%
17:00 +12°C° 0 mm 2 mps 724 mmHg 88%
18:00 +11°C° 0 mm 1 mps 725 mmHg 89%
19:00 +11°C° 0 mm 1 mps 725 mmHg 91%
20:00 +11°C° 0 mm 1 mps 725 mmHg 91%
21:00 +10°C° 0 mm 1 mps 725 mmHg 91%
22:00 +10°C° 0 mm 1 mps 726 mmHg 91%
23:00 +10°C° 0 mm 1 mps 725 mmHg 91%

Pasado mañana, 30 Octubre, Viernes

Tiempo Temperatura Precipitaciones Viento Presión Humedad
00:00 +10°C° 0 mm 1 mps 725 mmHg 91%
01:00 +9°C° 0 mm 1 mps 725 mmHg 92%
02:00 +9°C° 0 mm 1 mps 725 mmHg 92%
03:00 +9°C° 0 mm 1 mps 725 mmHg 93%
04:00 +8°C° 0 mm 1 mps 725 mmHg 94%
05:00 +8°C° 0 mm 1 mps 725 mmHg 93%
06:00 +8°C° 0 mm 1 mps 725 mmHg 93%
07:00 +8°C° 0 mm 1 mps 725 mmHg 93%
08:00 +10°C° 0 mm 1 mps 725 mmHg 89%
09:00 +11°C° 0 mm 1 mps 725 mmHg 85%
10:00 +12°C° 0 mm 0 mps 726 mmHg 81%
11:00 +14°C° 0 mm 1 mps 726 mmHg 76%
12:00 +15°C° 0 mm 1 mps 726 mmHg 72%
13:00 +16°C° 0 mm 1 mps 726 mmHg 67%
14:00 +16°C° 0 mm 1 mps 725 mmHg 71%
15:00 +16°C° 0 mm 1 mps 725 mmHg 75%
16:00 +14°C° 0 mm 0 mps 725 mmHg 78%
17:00 +13°C° 0 mm 0 mps 725 mmHg 83%
18:00 +11°C° 0 mm 0 mps 725 mmHg 88%
19:00 +9°C° 0 mm 0 mps 725 mmHg 93%
20:00 +9°C° 0 mm 0 mps 725 mmHg 94%
21:00 +9°C° 0 mm 0 mps 725 mmHg 94%
22:00 +8°C° 0 mm 0 mps 725 mmHg 94%
23:00 +8°C° 0 mm 0 mps 725 mmHg 93%

31 Octubre, Sábado

Tiempo Temperatura Precipitaciones Viento Presión Humedad
00:00 +8°C° 0 mm 0 mps 725 mmHg 93%
01:00 +8°C° 0 mm 0 mps 724 mmHg 93%
02:00 +7°C° 0 mm 0 mps 724 mmHg 92%
03:00 +7°C° 0 mm 0 mps 724 mmHg 92%
04:00 +7°C° 0 mm 0 mps 724 mmHg 91%
05:00 +7°C° 0 mm 0 mps 723 mmHg 91%
06:00 +7°C° 0 mm 0 mps 723 mmHg 91%
07:00 +6°C° 0 mm 0 mps 723 mmHg 90%
08:00 +8°C° 0 mm 0 mps 723 mmHg 86%
09:00 +10°C° 0 mm 0 mps 723 mmHg 81%
10:00 +12°C° 0 mm 0 mps 723 mmHg 77%
11:00 +14°C° 0 mm 1 mps 723 mmHg 73%
12:00 +15°C° 0 mm 1 mps 723 mmHg 68%
13:00 +18°C° 0 mm 1 mps 723 mmHg 64%
14:00 +15°C° 0 mm 0 mps 723 mmHg 68%
15:00 +15°C° 0 mm 0 mps 723 mmHg 73%
16:00 +14°C° 0 mm 0 mps 723 mmHg 77%
17:00 +13°C° 0 mm 0 mps 723 mmHg 80%
18:00 +12°C° 0 mm 1 mps 723 mmHg 83%
19:00 +11°C° 0 mm 1 mps 723 mmHg 85%
20:00 +11°C° 0 mm 1 mps 722 mmHg 85%
21:00 +10°C° 0 mm 1 mps 722 mmHg 85%
22:00 +10°C° 0 mm 1 mps 722 mmHg 85%
23:00 +10°C° 0 mm 1 mps 722 mmHg 85%

1 Noviembre, Domingo

Tiempo Temperatura Precipitaciones Viento Presión Humedad
00:00 +9°C° 0 mm 1 mps 722 mmHg 85%
01:00 +9°C° 0 mm 1 mps 722 mmHg 85%
02:00 +9°C° 0 mm 1 mps 722 mmHg 84%
03:00 +9°C° 0 mm 1 mps 722 mmHg 84%
04:00 +9°C° 0 mm 1 mps 722 mmHg 83%
05:00 +8°C° 0 mm 1 mps 722 mmHg 83%
06:00 +8°C° 0 mm 1 mps 722 mmHg 83%
07:00 +8°C° 0 mm 1 mps 722 mmHg 83%
08:00 +10°C° 0 mm 1 mps 722 mmHg 79%
09:00 +12°C° 0 mm 1 mps 723 mmHg 75%
10:00 +14°C° 0 mm 1 mps 723 mmHg 70%
11:00 +15°C° 0 mm 1 mps 723 mmHg 65%
12:00 +18°C° 0 mm 1 mps 723 mmHg 60%
13:00 +19°C° 0 mm 1 mps 723 mmHg 55%
14:00 +19°C° 0 mm 1 mps 723 mmHg 60%
15:00 +16°C° 0 mm 0 mps 722 mmHg 66%
16:00 +16°C° 0 mm 0 mps 722 mmHg 71%
17:00 +14°C° 0 mm 0 mps 722 mmHg 75%
18:00 +14°C° 0 mm 1 mps 722 mmHg 79%
19:00 +12°C° 0 mm 1 mps 722 mmHg 83%
20:00 +12°C° 0 mm 1 mps 722 mmHg 83%
21:00 +11°C° 0 mm 1 mps 722 mmHg 83%
22:00 +11°C° 0 mm 1 mps 722 mmHg 83%
23:00 +11°C° 0 mm 1 mps 722 mmHg 82%

2 Noviembre, Lunes

Tiempo Temperatura Precipitaciones Viento Presión Humedad
00:00 +11°C° 0 mm 1 mps 722 mmHg 82%
01:00 +11°C° 0 mm 1 mps 722 mmHg 81%
02:00 +10°C° 0 mm 1 mps 722 mmHg 81%
03:00 +10°C° 0 mm 1 mps 721 mmHg 80%
04:00 +10°C° 0 mm 1 mps 721 mmHg 79%
05:00 +10°C° 0 mm 1 mps 721 mmHg 77%
06:00 +10°C° 0 mm 1 mps 721 mmHg 76%
07:00 +10°C° 0 mm 1 mps 721 mmHg 74%
08:00 +12°C° 0 mm 1 mps 721 mmHg 70%
09:00 +13°C° 0 mm 1 mps 721 mmHg 67%
10:00 +14°C° 0 mm 1 mps 721 mmHg 63%
11:00 +16°C° 0 mm 1 mps 721 mmHg 60%
12:00 +18°C° 0 mm 1 mps 721 mmHg 57%
13:00 +19°C° 0 mm 1 mps 721 mmHg 53%
14:00 +19°C° 0 mm 1 mps 721 mmHg 59%
15:00 +18°C° 0 mm 1 mps 721 mmHg 64%
16:00 +16°C° 0 mm 1 mps 721 mmHg 70%
17:00 +15°C° 0 mm 1 mps 721 mmHg 72%
18:00 +14°C° 0 mm 1 mps 721 mmHg 74%
19:00 +12°C° 0 mm 1 mps 721 mmHg 75%
20:00 +12°C° 0 mm 1 mps 721 mmHg 76%
21:00 +12°C° 0 mm 1 mps 721 mmHg 77%
22:00 +11°C° 0 mm 1 mps 722 mmHg 78%
23:00 +11°C° 0 mm 1 mps 722 mmHg 79%
Mostrar más

Necesitamos Su Consentimiento

Meteoprog y nuestros Proveedores de Servicios pueden almacenar y acceder a sus datos personales como cookies, identificadores de dispositivo u otras tecnologías similares de su dispositivo y procesar dichos datos para personalizar contenido y anuncios, además de ofrecer funciones de redes sociales y analizar el tráfico.

  • Almacenar y/o acceder a información en su dispositivo

    Se puede almacenar o acceder a cookies, identificadores de dispositivo u otra información de su dispositivo para los fines anteriormente indicados.

  • Anuncios y contenido personalizados, medición de anuncios y contenido, percepciones del público, y desarrollo de productos

    Los anuncios y el contenido pueden personalizarse en base a su perfil. Se pueden añadir más datos para personalizar mejor los anuncios y contenidos. Se puede medir el rendimiento de los anuncios y contenidos. Se puede obtener la percepción sobre el público que ha visto los anuncios y contenidos. Dichos datos pueden usarse para desarrollar o mejorar la experiencia del usuario, sistemas y software.

Al hacer clic en ‘Estoy De Acuerdo’ usted permitirá el uso de las cookies, identificadores de dispositivo, balizas web u otras tecnologías similares indicadas. Su configuración puede cambiarse desde el navegador de su dispositivo.

Para ciertos fines, los intereses legítimos pueden ser considerados por encima del consentimiento. Puede leer más sobre ello en nuestra Política de Privacidad y Cookies.